CW4086 Weather Reports


Display with metric or nautical units.
time (UTC)temp
F
wind
direction
speed
MPH
gust
MPH
rain 1hr
in
rain 24hr
in
rain mn
in
humidity
%
barometer
mb
20260906203604 70 214 0.0 3.0 0.10 0.48 0.48 100 1014.7
20260906203104 69 253 0.0 1.0 0.12 0.48 0.48 100 1015.0
20260906202606 69 253 0.0 1.0 0.12 0.48 0.48 100 1015.2
20260906202104 69 253 0.0 1.0 0.14 0.48 0.48 96 1015.3
20260906201605 68 253 0.0 1.0 0.15 0.48 0.48 96 1015.3
20260906200605 67 253 0.0 2.0 0.15 0.47 0.47 96 1015.6
20260906200104 67 253 0.0 3.0 0.16 0.47 0.47 96 1015.8
20260906195604 67 253 1.0 3.0 0.16 0.46 0.46 95 1015.9
20260906195104 67 253 2.0 3.0 0.15 0.44 0.44 95 1016.0
20260906194604 67 253 2.0 3.0 0.15 0.43 0.43 95 1015.9
20260906194104 67 253 0.0 3.0 0.14 0.42 0.42 95 1015.9
20260906193604 68 253 2.0 3.0 0.09 0.38 0.38 94 1015.9
20260906193105 68 253 3.0 3.0 0.08 0.36 0.36 94 1015.9
20260906192604 69 245 2.0 3.0 0.09 0.36 0.36 95 1015.8
20260906192104 69 186 1.0 2.0 0.07 0.34 0.34 95 1015.8
20260906191604 69 192 1.0 2.0 0.07 0.33 0.33 95 1015.7
20260906190604 69 235 0.0 3.0 0.07 0.32 0.32 94 1015.8
20260906190112 69 234 1.0 3.0 0.07 0.31 0.31 94 1015.7
20260906185604 69 234 0.0 1.0 0.07 0.30 0.30 94 1015.6
20260906184604 68 234 0.0 3.0 0.08 0.29 0.29 94 1015.6
20260906184104 68 300 1.0 2.0 0.10 0.29 0.29 94 1015.6
20260906183604 68 300 0.0 2.0 0.11 0.29 0.29 94 1015.6
20260906182605 67 300 1.0 5.0 0.10 0.27 0.27 93 1015.7
20260906182104 68 300 2.0 5.0 0.10 0.27 0.27 92 1015.6
20260906181604 68 300 3.0 5.0 0.09 0.26 0.26 93 1015.6
20260906181104 68 300 1.0 3.0 0.09 0.26 0.26 93 1015.6
20260906180604 68 300 0.0 3.0 0.08 0.25 0.25 93 1015.6
20260906175103 68 300 3.0 5.0 0.05 0.21 0.21 92 1015.4
20260906174604 68 300 2.0 6.0 0.04 0.20 0.20 92 1015.2
20260906174104 68 291 0.0 6.0 0.02 0.18 0.18 92 1015.2
20260906172604 68 292 0.0 2.0 0.01 0.17 0.17 92 1014.8
20260906172105 68 292 0.0 3.0 0.01 0.17 0.17 92 1014.6
20260906171604 68 292 2.0 3.0 0.01 0.17 0.17 92 1014.5
20260906171108 68 292 2.0 5.0 0.01 0.17 0.17 92 1014.4
20260906170604 69 292 3.0 5.0 0.01 0.17 0.17 92 1014.4
20260906170110 70 336 2.0 3.0 0.01 0.17 0.17 93 1014.2
20260906165603 70 73 2.0 3.0 0.01 0.17 0.17 93 1014.2
20260906165104 70 73 1.0 3.0 0.01 0.17 0.17 93 1013.8
20260906163604 69 80 1.0 2.0 0.02 0.17 0.17 93 1013.8
20260906163104 69 80 0.0 1.0 0.02 0.16 0.16 92 1013.8
20260906162604 69 80 0.0 1.0 0.03 0.16 0.16 92 1013.8
20260906161604 69 80 0.0 1.0 0.04 0.16 0.16 92 1013.8
20260906155604 69 46 0.0 1.0 0.04 0.16 0.16 91 1013.9
20260906155105 68 46 0.0 1.0 0.04 0.16 0.16 91 1014.1
20260906154604 68 46 0.0 1.0 0.04 0.16 0.16 91 1014.2
20260906154104 69 46 0.0 1.0 0.03 0.15 0.15 91 1014.2
20260906153604 68 46 0.0 1.0 0.03 0.15 0.15 91 1014.1
20260906153104 68 46 0.0 2.0 0.02 0.14 0.14 91 1014.2
20260906152604 68 46 0.0 2.0 0.01 0.13 0.13 91 1014.3
20260906152104 69 46 1.0 2.0 0.01 0.13 0.13 91 1014.2
20260906151605 69 46 0.0 3.0 0.00 0.12 0.12 91 1014.1
20260906150109 68 46 0.0 1.0 0.00 0.12 0.12 90 1013.8
20260906145604 68 46 0.0 1.0 0.00 0.12 0.12 90 1013.8
20260906145104 68 46 0.0 1.0 0.00 0.12 0.12 90 1013.8
20260906144604 68 46 0.0 2.0 0.00 0.12 0.12 90 1013.8
20260906144104 69 46 0.0 2.0 0.00 0.12 0.12 91 1013.7
20260906143604 68 46 1.0 2.0 0.00 0.12 0.12 90 1013.7
20260906142604 68 46 0.0 2.0 0.00 0.12 0.12 90 1013.5
20260906142104 69 46 1.0 2.0 0.00 0.12 0.12 90 1013.5
20260906141604 68 46 0.0 2.0 0.00 0.12 0.12 90 1013.3
20260906141104 68 46 1.0 2.0 0.00 0.12 0.12 89 1013.3
20260906140604 69 46 1.0 2.0 0.00 0.12 0.12 89 1013.2
20260906140105 69 46 1.0 2.0 0.00 0.12 0.12 89 1013.0
20260906135604 69 46 0.0 2.0 0.00 0.12 0.12 89 1012.8
20260906135104 69 46 0.0 3.0 0.00 0.12 0.12 89 1012.7
20260906134604 68 46 0.0 3.0 0.00 0.12 0.12 88 1012.7
20260906134104 68 46 1.0 3.0 0.00 0.12 0.12 88 1012.4
20260906133604 69 46 0.0 3.0 0.01 0.12 0.12 88 1012.2
20260906133104 69 46 1.0 3.0 0.01 0.12 0.12 88 1012.2
20260906132604 69 46 0.0 3.0 0.01 0.12 0.12 88 1012.2
20260906132104 69 46 0.0 2.0 0.02 0.12 0.12 87 1011.9
20260906131604 69 46 0.0 2.0 0.02 0.12 0.12 87 1011.7
20260906131107 69 46 0.0 2.0 0.02 0.12 0.12 87 1011.7
20260906130108 69 46 1.0 2.0 0.02 0.12 0.12 86 1011.8
20260906125604 69 46 0.0 3.0 0.02 0.12 0.12 86 1011.8
20260906125104 69 46 2.0 3.0 0.02 0.12 0.12 86 1011.7
20260906124605 69 45 1.0 3.0 0.03 0.12 0.12 87 1011.9
20260906124104 69 46 1.0 5.0 0.03 0.12 0.12 87 1012.1
20260906123604 69 46 1.0 5.0 0.02 0.11 0.11 87 1012.0
20260906123104 69 69 0.0 2.0 0.02 0.11 0.11 87 1012.0
20260906122104 69 69 0.0 3.0 0.02 0.10 0.10 86 1012.3
20260906121604 68 69 0.0 3.0 0.02 0.10 0.10 86 1012.3
20260906121104 68 68 1.0 3.0 0.03 0.10 0.10 86 1012.3
20260906120604 68 69 1.0 3.0 0.04 0.10 0.10 86 1012.3
20260906120104 68 77 1.0 3.0 0.06 0.10 0.10 86 1012.3
20260906115604 68 77 0.0 3.0 0.07 0.10 0.10 85 1012.3
20260906115104 68 74 0.0 3.0 0.09 0.10 0.10 85 1012.5
20260906114604 68 78 0.0 3.0 0.09 0.09 0.09 85 1012.7
20260906114104 69 78 0.0 3.0 0.09 0.09 0.09 84 1012.7
20260906113604 69 73 0.0 3.0 0.09 0.09 0.09 83 1012.8
20260906113104 69 73 2.0 3.0 0.09 0.09 0.09 82 1012.7
20260906112605 69 69 1.0 3.0 0.09 0.09 0.09 80 1012.8
20260906112104 69 68 1.0 3.0 0.08 0.08 0.08 79 1012.8
20260906111604 70 65 1.0 3.0 0.08 0.08 0.08 77 1012.9
20260906111106 70 119 0.0 2.0 0.07 0.07 0.07 76 1013.1
20260906110604 71 194 0.0 2.0 0.06 0.06 0.06 75 1013.1
20260906110110 72 194 1.0 3.0 0.05 0.05 0.05 73 1013.2
20260906105604 72 194 1.0 3.0 0.03 0.03 0.03 69 1013.2
20260906105104 73 194 1.0 3.0 0.01 0.01 0.01 67 1013.0
20260906104604 73 194 1.0 2.0 0.00 0.00 0.00 65 1013.0
20260906104104 73 194 0.0 1.0 0.00 0.00 0.00 64 1012.9
20260906103104 73 194 0.0 3.0 0.00 0.00 0.00 62 1012.5
20260906102604 73 198 1.0 3.0 0.00 0.00 0.00 62 1012.4
20260906102104 73 271 0.0 2.0 0.00 0.00 0.00 62 1012.4
20260906101605 73 271 1.0 1.0 0.00 0.00 0.00 61 1012.4
20260906100604 73 271 0.0 2.0 0.00 0.00 0.00 57 1012.5
20260906100104 73 271 1.0 2.0 0.00 0.00 0.00 58 1012.5
20260906095604 73 271 0.0 1.0 0.00 0.00 0.00 57 1012.6
20260906095103 73 271 0.0 1.0 0.00 0.00 0.00 57 1012.6
20260906094604 74 271 0.0 1.0 0.00 0.00 0.00 57 1012.6
20260906094104 74 271 0.0 1.0 0.00 0.00 0.00 56 1012.6
20260906093603 75 271 0.0 1.0 0.00 0.00 0.00 55 1012.5
20260906093103 75 271 0.0 1.0 0.00 0.00 0.00 49 1012.5
20260906092604 75 271 0.0 1.0 0.00 0.00 0.00 49 1012.6
20260906092103 75 271 0.0 1.0 0.00 0.00 0.00 47 1012.7
20260906091605 75 271 0.0 1.0 0.00 0.00 0.00 47 1012.7
20260906091105 75 271 0.0 1.0 0.00 0.00 0.00 47 1012.8
20260906090604 75 271 0.0 0.0 0.00 0.00 0.00 46 1012.9
20260906090108 76 271 0.0 1.0 0.00 0.00 0.00 45 1013.0
20260906084603 76 271 0.0 1.0 0.00 0.00 0.00 44 1013.0
20260906083604 76 271 0.0 0.0 0.00 0.00 0.00 44 1013.2
20260906083103 76 271 0.0 1.0 0.00 0.00 0.00 45 1013.2
20260906082604 76 271 0.0 2.0 0.00 0.00 0.00 45 1013.2
20260906082104 76 271 1.0 2.0 0.00 0.00 0.00 45 1013.2
20260906081604 76 271 0.0 0.0 0.00 0.00 0.00 43 1013.2
20260906081104 76 271 0.0 0.0 0.00 0.00 0.00 44 1013.2
20260906080604 76 271 0.0 0.0 0.00 0.00 0.00 46 1013.2
20260906080113 76 271 0.0 0.0 0.00 0.00 0.00 46 1013.1
20260906075604 76 271 0.0 0.0 0.00 0.00 0.00 45 1013.2
20260906075104 76 271 0.0 0.0 0.00 0.00 0.00 44 1013.1
20260906074604 76 271 0.0 2.0 0.00 0.00 0.00 44 1013.1
20260906074104 76 271 0.0 2.0 0.00 0.00 0.00 44 1013.2
20260906073603 76 271 1.0 2.0 0.00 0.00 0.00 43 1013.2
20260906073104 76 271 0.0 0.0 0.00 0.00 0.00 43 1013.1
20260906072104 76 271 0.0 2.0 0.00 0.00 0.00 43 1013.0
20260906071603 76 271 0.0 2.0 0.00 0.00 0.00 43 1013.0
20260906070604 77 271 0.0 1.0 0.00 0.00 0.00 42 1013.0
20260906070108 77 271 0.0 1.0 0.00 0.00 0.00 42 1013.1
20260906065604 77 271 1.0 1.0 0.00 0.00 0.00 41 1013.1
20260906065104 77 271 1.0 2.0 0.00 0.00 0.00 40 1012.9
20260906064604 77 271 1.0 2.0 0.00 0.00 0.00 41 1012.9
20260906064104 77 271 1.0 2.0 0.00 0.00 0.00 40 1013.0
20260906063603 77 271 0.0 2.0 0.00 0.00 0.00 40 1013.1
20260906063104 78 271 0.0 1.0 0.00 0.00 0.00 40 1013.2
20260906062603 77 271 0.0 0.0 0.00 0.00 0.00 40 1013.3
20260906061104 77 271 0.0 1.0 0.00 0.00 0.00 42 1013.3
20260906060604 77 271 0.0 0.0 0.00 0.00 0.00 41 1013.3
20260906060108 77 271 0.0 1.0 0.00 0.00 0.00 41 1013.3
20260906055604 77 271 0.0 1.0 0.00 0.00 0.00 41 1013.3
20260906055104 77 271 0.0 1.0 0.00 0.00 0.00 41 1013.3
20260906054604 77 271 0.0 0.0 0.00 0.00 0.00 41 1013.3
20260906054105 77 271 0.0 1.0 0.00 0.00 0.00 41 1013.3
20260906053104 78 271 0.0 0.0 0.00 0.00 0.00 40 1013.3
20260906052604 78 271 0.0 1.0 0.00 0.00 0.00 39 1013.3
20260906052105 78 271 0.0 1.0 0.00 0.00 0.00 38 1013.2
20260906051603 78 271 0.0 1.0 0.00 0.00 0.00 39 1013.3
20260906051104 78 271 0.0 0.0 0.00 0.00 0.00 39 1013.3
20260906050604 78 271 0.0 0.0 0.00 0.00 0.00 38 1013.3
20260906045604 78 271 0.0 1.0 0.00 0.00 0.00 38 1013.4
20260906045104 78 271 0.0 1.0 0.00 0.00 0.00 39 1013.3
20260906044604 78 271 0.0 1.0 0.00 0.00 0.00 40 1013.3
20260906044104 78 271 0.0 1.0 0.00 0.00 0.00 40 1013.3
20260906042604 78 271 0.0 1.0 0.00 0.00 0.00 40 1013.3
20260906042106 79 271 0.0 1.0 0.00 0.00 0.00 40 1013.3
20260906041604 79 271 0.0 1.0 0.00 0.00 0.00 40 1013.4
20260906041103 79 271 0.0 1.0 0.00 0.00 0.00 39 1013.3
20260906040604 79 271 0.0 1.0 0.00 0.00 0.00 39 1013.4
20260906040105 78 271 0.0 0.0 0.00 0.00 0.00 38 1013.5
20260906035604 79 271 0.0 0.0 0.00 0.00 0.00 39 1013.4
20260906035103 79 271 0.0 1.0 0.00 0.00 0.00 38 1013.4
20260906034604 79 271 0.0 3.0 0.00 0.00 0.00 38 1013.4
20260906033104 80 270 2.0 7.0 0.00 0.00 0.00 38 1013.3
20260906032603 80 272 5.0 7.0 0.00 0.00 0.00 37 1013.2
20260906032104 81 276 3.0 5.0 0.00 0.00 0.00 37 1013.2
20260906031604 82 272 2.0 5.0 0.00 0.00 0.00 36 1013.3
20260906031106 82 221 0.0 3.0 0.00 0.00 0.00 36 1013.1
20260906030604 82 195 0.0 3.0 0.00 0.00 0.00 35 1013.2
20260906030109 82 178 1.0 2.0 0.00 0.00 0.00 35 1013.0
20260906024604 82 209 0.0 2.0 0.00 0.00 0.00 34 1012.9
20260906024104 82 209 1.0 3.0 0.00 0.00 0.00 34 1012.9
20260906023604 83 209 1.0 3.0 0.00 0.00 0.00 34 1012.9
20260906023104 83 209 0.0 3.0 0.00 0.00 0.00 34 1012.9
20260906022604 83 209 1.0 3.0 0.00 0.00 0.00 34 1012.8
20260906022104 83 209 0.0 5.0 0.00 0.00 0.00 33 1012.7
20260906021604 84 209 1.0 5.0 0.00 0.00 0.00 33 1012.5
20260906021106 84 221 1.0 5.0 0.00 0.00 0.00 33 1012.5
20260906020604 85 248 1.0 5.0 0.00 0.00 0.00 33 1012.5
20260906020104 85 241 2.0 6.0 0.00 0.00 0.00 31 1012.4
20260906015604 85 225 2.0 8.0 0.00 0.00 0.00 31 1012.4
20260906014603 86 245 3.0 8.0 0.00 0.00 0.00 31 1012.4
20260906014103 87 249 5.0 8.0 0.00 0.00 0.00 31 1012.4
20260906013604 87 240 4.0 8.0 0.00 0.00 0.00 31 1012.4
20260906012604 87 238 5.0 7.0 0.00 0.00 0.00 30 1012.4
20260906012104 87 222 3.0 8.0 0.00 0.00 0.00 31 1012.5
20260906011604 87 239 5.0 8.0 0.00 0.00 0.00 30 1012.4
20260906011106 87 246 4.0 8.0 0.00 0.00 0.00 31 1012.4
20260906010604 87 258 5.0 8.0 0.00 0.00 0.00 31 1012.5
20260906010107 88 246 3.0 8.0 0.00 0.00 0.00 31 1012.4
20260906005604 88 265 5.0 7.0 0.00 0.00 0.00 29 1012.5
20260906005103 88 194 4.0 6.0 0.00 0.00 0.00 29 1012.5
20260906004604 87 229 3.0 8.0 0.00 0.00 0.00 30 1012.5
20260906004104 87 267 5.0 8.0 0.00 0.00 0.00 31 1012.5
20260906003104 87 228 5.0 8.0 0.00 0.00 0.00 31 1012.4
20260906002604 87 262 4.0 7.0 0.00 0.00 0.00 32 1012.4
20260906002105 86 229 3.0 8.0 0.00 0.00 0.00 32 1012.4
20260906001603 86 278 5.0 8.0 0.00 0.00 0.00 33 1012.4
20260906000603 86 280 5.0 10.0 0.00 0.00 0.00 31 1012.4
20260905235604 87 255 5.0 8.0 0.00 0.00 0.00 32 1012.4
20260905235104 87 287 5.0 9.0 0.00 0.00 0.00 33 1012.4
20260905234104 89 260 4.0 9.0 0.00 0.00 0.00 30 1012.4
20260905233604 89 261 2.0 10.0 0.00 0.00 0.00 29 1012.4
20260905233103 89 267 5.0 10.0 0.00 0.00 0.00 29 1012.4
20260905232604 89 220 3.0 10.0 0.00 0.00 0.00 29 1012.4
20260905232104 89 225 5.0 13.0 0.00 0.00 0.00 29 1012.4
20260905231104 88 165 4.0 10.0 0.00 0.00 0.00 30 1012.5
20260905230604 88 226 4.0 10.0 0.00 0.00 0.00 30 1012.5
20260905230107 89 244 5.0 8.0 0.00 0.00 0.00 30 1012.5
20260905225104 89 252 3.0 8.0 0.00 0.00 0.00 29 1012.6
20260905224604 89 251 5.0 8.0 0.00 0.00 0.00 29 1012.6
20260905223604 89 254 6.0 10.0 0.00 0.00 0.00 27 1012.7
20260905223104 89 249 5.0 13.0 0.00 0.00 0.00 28 1012.7
20260905222104 91 259 5.0 12.0 0.00 0.00 0.00 26 1012.8
20260905221603 91 269 6.0 12.0 0.00 0.00 0.00 26 1012.9
20260905221103 90 240 6.0 12.0 0.00 0.00 0.00 28 1012.9
20260905220604 89 257 4.0 13.0 0.00 0.00 0.00 27 1013.0
20260905220113 89 185 3.0 13.0 0.00 0.00 0.00 27 1013.1
20260905215603 89 282 5.0 12.0 0.00 0.00 0.00 26 1013.1
20260905215103 89 273 5.0 12.0 0.00 0.00 0.00 26 1013.1
20260905214604 89 257 6.0 10.0 0.00 0.00 0.00 25 1013.2
20260905213604 90 261 5.0 10.0 0.00 0.00 0.00 25 1013.3
20260905213104 90 260 5.0 10.0 0.00 0.00 0.00 25 1013.4
20260905212606 89 262 7.0 12.0 0.00 0.00 0.00 25 1013.4
20260905212105 90 272 6.0 12.0 0.00 0.00 0.00 25 1013.4
20260905211603 90 271 7.0 12.0 0.00 0.00 0.00 24 1013.4
20260905211104 91 276 6.0 12.0 0.00 0.00 0.00 25 1013.4
20260905210604 91 302 4.0 12.0 0.00 0.00 0.00 25 1013.5
20260905210109 91 264 6.0 13.0 0.00 0.00 0.00 25 1013.5
20260905205604 91 275 7.0 13.0 0.00 0.00 0.00 25 1013.4
20260905205104 91 254 6.0 13.0 0.00 0.00 0.00 22 1013.6
20260905204604 90 267 9.0 13.0 0.00 0.00 0.00 24 1013.6
20260905204103 90 290 7.0 9.0 0.00 0.00 0.00 22 1013.7